Time,TemperatureF,DewpointF,PressureIn,WindDirection,WindDirectionDegrees,WindSpeedMPH,WindSpeedGustMPH,Humidity,HourlyPrecipIn,Conditions,Clouds,dailyrainin,SolarRadiationWatts/m^2,SoftwareType,DateUTC
2013-01-19 00:00:00,22.7,-6.5,30.42,NNE,21,0.0,-999.0,19,-99.99,,,0.00,0.0,cwc,2013-01-19 07:00:00,
2013-01-19 00:05:00,20.3,-0.9,30.43,NNE,21,0.0,-999.0,41,-99.99,,,0.00,0.0,cwc,2013-01-19 07:05:00,
2013-01-19 00:10:00,19.1,-12.9,30.43,NNE,21,0.0,-999.0,11,-99.99,,,0.00,0.0,cwc,2013-01-19 07:10:00,
2013-01-19 00:15:00,18.8,-15.4,30.43,NNE,21,0.0,-999.0,5,-99.99,,,0.00,0.0,cwc,2013-01-19 07:15:00,
2013-01-19 00:20:00,21.9,-11.9,30.42,NNE,21,0.0,-999.0,6,-99.99,,,0.00,0.0,cwc,2013-01-19 07:20:00,
2013-01-19 00:25:00,18.3,-13.7,30.42,NNE,21,0.0,-999.0,11,-99.99,,,0.00,0.0,cwc,2013-01-19 07:25:00,
2013-01-19 00:30:00,20.8,-4.8,30.42,NNE,21,0.0,-999.0,29,-99.99,,,0.00,0.0,cwc,2013-01-19 07:30:00,
2013-01-19 00:35:00,19.1,-7.5,30.42,NNE,21,0.0,-999.0,26,-99.99,,,0.00,0.0,cwc,2013-01-19 07:35:00,
2013-01-19 00:40:00,21.1,-2.3,30.42,NNE,21,0.0,-999.0,35,-99.99,,,0.00,0.0,cwc,2013-01-19 07:40:00,
2013-01-19 00:45:00,18.3,-7.3,30.42,NNE,21,0.0,-999.0,29,-99.99,,,0.00,0.0,cwc,2013-01-19 07:45:00,
2013-01-19 00:50:00,16.7,-9.2,30.43,NNE,21,0.0,-999.0,28,-99.99,,,0.00,0.0,cwc,2013-01-19 07:50:00,
2013-01-19 00:55:00,15.6,-10.7,30.43,NNE,21,0.0,-999.0,27,-99.99,,,0.00,0.0,cwc,2013-01-19 07:55:00,
2013-01-19 01:00:00,17.3,-9.0,30.43,NNE,21,0.0,-999.0,27,-99.99,,,0.00,0.0,cwc,2013-01-19 08:00:00,
2013-01-19 01:05:00,15.7,-11.3,30.45,NNE,21,0.0,-999.0,25,-99.99,,,0.00,0.0,cwc,2013-01-19 08:05:00,
2013-01-19 01:10:00,14.8,-12.6,30.45,NNE,21,0.0,-999.0,24,-99.99,,,0.00,0.0,cwc,2013-01-19 08:10:00,
2013-01-19 01:15:00,14.1,-14.0,30.45,NNE,21,0.0,-999.0,22,-99.99,,,0.00,0.0,cwc,2013-01-19 08:15:00,
2013-01-19 01:20:00,14.8,-15.4,30.41,NNE,21,0.0,-999.0,16,-99.99,,,0.00,0.0,cwc,2013-01-19 08:20:00,
2013-01-19 01:25:00,14.4,-14.8,30.41,NNE,21,0.0,-999.0,19,-99.99,,,0.00,0.0,cwc,2013-01-19 08:25:00,
2013-01-19 01:30:00,17.3,-9.0,30.41,NNE,21,0.0,-999.0,27,-99.99,,,0.00,0.0,cwc,2013-01-19 08:30:00,
2013-01-19 01:35:00,15.6,-12.5,30.45,NNE,21,0.0,-999.0,22,-99.99,,,0.00,0.0,cwc,2013-01-19 08:35:00,
2013-01-19 01:40:00,17.2,-9.4,30.45,NNE,21,0.0,-999.0,26,-99.99,,,0.00,0.0,cwc,2013-01-19 08:40:00,
2013-01-19 01:45:00,15.9,-12.2,30.45,NNE,21,0.0,-999.0,22,-99.99,,,0.00,0.0,cwc,2013-01-19 08:45:00,
2013-01-19 01:50:00,15.4,-13.4,30.45,NNE,21,0.0,-999.0,20,-99.99,,,0.00,0.0,cwc,2013-01-19 08:50:00,
2013-01-19 01:55:00,14.6,-15.3,30.45,NNE,21,0.0,-999.0,17,-99.99,,,0.00,0.0,cwc,2013-01-19 08:55:00,
2013-01-19 02:00:00,15.4,-14.1,30.45,NNE,21,0.0,-999.0,18,-99.99,,,0.00,0.0,cwc,2013-01-19 09:00:00,
2013-01-19 02:10:00,16.4,-10.6,30.47,NNE,21,0.0,-999.0,25,-99.99,,,0.00,0.0,cwc,2013-01-19 09:10:00,
2013-01-19 02:15:00,15.6,-12.8,30.47,NNE,21,0.0,-999.0,21,-99.99,,,0.00,0.0,cwc,2013-01-19 09:15:00,
2013-01-19 02:20:00,14.6,-15.3,30.44,NNE,21,0.0,-999.0,17,-99.99,,,0.00,0.0,cwc,2013-01-19 09:20:00,
2013-01-19 02:25:00,14.8,-14.4,30.44,NNE,21,0.0,-999.0,19,-99.99,,,0.00,0.0,cwc,2013-01-19 09:25:00,
2013-01-19 02:30:00,14.8,-13.6,30.44,NNE,21,0.0,-999.0,21,-99.99,,,0.00,0.0,cwc,2013-01-19 09:30:00,
2013-01-19 02:35:00,15.1,-13.3,30.44,NNE,21,0.0,-999.0,21,-99.99,,,0.00,0.0,cwc,2013-01-19 09:35:00,
2013-01-19 02:40:00,13.5,-16.0,30.44,NNE,21,0.0,-999.0,18,-99.99,,,0.00,0.0,cwc,2013-01-19 09:40:00,
2013-01-19 02:45:00,13.3,-17.3,30.44,NNE,21,0.0,-999.0,15,-99.99,,,0.00,0.0,cwc,2013-01-19 09:45:00,
2013-01-19 02:50:00,12.6,-18.0,30.46,NNE,21,0.0,-999.0,15,-99.99,,,0.00,0.0,cwc,2013-01-19 09:50:00,
2013-01-19 02:55:00,14.1,-15.8,30.46,NNE,21,0.0,-999.0,17,-99.99,,,0.00,0.0,cwc,2013-01-19 09:55:00,
2013-01-19 03:00:00,14.0,-15.5,30.46,NNE,21,0.0,-999.0,18,-99.99,,,0.00,0.0,cwc,2013-01-19 10:00:00,
2013-01-19 03:05:00,15.2,-16.8,30.46,NNE,21,0.0,-999.0,11,-99.99,,,0.00,0.0,cwc,2013-01-19 10:05:00,
2013-01-19 03:10:00,19.2,-9.6,30.46,NNE,21,0.0,-999.0,20,-99.99,,,0.00,0.0,cwc,2013-01-19 10:10:00,
2013-01-19 03:15:00,15.2,-12.5,30.46,NNE,21,0.0,-999.0,23,-99.99,,,0.00,0.0,cwc,2013-01-19 10:15:00,
2013-01-19 03:20:00,21.4,-6.3,30.44,NNE,21,0.0,-999.0,23,-99.99,,,0.00,0.0,cwc,2013-01-19 10:20:00,
2013-01-19 03:25:00,16.4,-9.5,30.44,NNE,23,0.0,-999.0,28,-99.99,,,0.00,0.0,cwc,2013-01-19 10:25:00,
2013-01-19 03:30:00,15.1,-11.5,30.44,NNE,23,0.0,-999.0,26,-99.99,,,0.00,0.0,cwc,2013-01-19 10:30:00,
2013-01-19 03:35:00,14.1,-14.0,30.44,NNE,23,0.0,-999.0,22,-99.99,,,0.00,0.0,cwc,2013-01-19 10:35:00,
2013-01-19 03:40:00,13.8,-14.3,30.44,NNE,23,0.0,-999.0,22,-99.99,,,0.00,0.0,cwc,2013-01-19 10:40:00,
2013-01-19 03:45:00,12.9,-16.3,30.44,NNE,23,0.0,-999.0,19,-99.99,,,0.00,0.0,cwc,2013-01-19 10:45:00,
2013-01-19 03:50:00,13.5,-15.3,30.41,NNE,23,0.0,-999.0,20,-99.99,,,0.00,0.0,cwc,2013-01-19 10:50:00,
2013-01-19 03:55:00,13.3,-15.9,30.41,NNE,23,0.0,-999.0,19,-99.99,,,0.00,0.0,cwc,2013-01-19 10:55:00,
2013-01-19 04:00:00,15.1,-13.7,30.41,NNE,23,0.0,-999.0,20,-99.99,,,0.00,0.0,cwc,2013-01-19 11:00:00,
2013-01-19 04:05:00,14.3,-14.1,30.44,NNE,23,0.0,-999.0,21,-99.99,,,0.00,0.0,cwc,2013-01-19 11:05:00,
2013-01-19 04:10:00,14.4,-14.4,30.44,NNE,23,0.0,-999.0,20,-99.99,,,0.00,0.0,cwc,2013-01-19 11:10:00,
2013-01-19 05:50:00,10.2,-25.1,30.57,NNE,25,0.0,-999.0,2,-99.99,,,0.00,0.0,cwc,2013-01-19 12:50:00,
2013-01-19 05:55:00,10.9,-24.0,30.57,NNE,25,0.0,-999.0,3,-99.99,,,0.00,0.0,cwc,2013-01-19 12:55:00,
2013-01-19 06:00:00,9.3,-26.0,30.57,NNE,25,0.0,-999.0,2,-99.99,,,0.00,0.0,cwc,2013-01-19 13:00:00,
2013-01-19 06:05:00,15.2,-19.4,30.58,NNE,25,0.0,-999.0,4,-99.99,,,0.00,0.0,cwc,2013-01-19 13:05:00,
2013-01-19 06:10:00,11.2,-23.0,30.58,NNE,25,1.0,-999.0,5,-99.99,,,0.00,0.0,cwc,2013-01-19 13:10:00,
2013-01-19 06:15:00,10.9,-24.0,30.58,NNE,25,2.0,-999.0,3,-99.99,,,0.00,0.0,cwc,2013-01-19 13:15:00,
2013-01-19 06:20:00,9.7,-25.9,30.56,NNE,25,0.0,-999.0,1,-99.99,,,0.00,0.0,cwc,2013-01-19 13:20:00,
2013-01-19 06:25:00,9.0,-27.0,30.56,NNE,25,0.0,-999.0,0,-99.99,,,0.00,0.0,cwc,2013-01-19 13:25:00,
2013-01-19 06:30:00,9.0,-27.0,30.56,NNE,25,0.0,-999.0,0,-99.99,,,0.00,0.0,cwc,2013-01-19 13:30:00,
2013-01-19 06:35:00,12.1,-23.9,30.63,NNE,25,0.0,-999.0,0,-99.99,,,0.00,0.0,cwc,2013-01-19 13:35:00,
2013-01-19 06:40:00,9.7,-26.3,30.63,NNE,25,0.0,-999.0,0,-99.99,,,0.00,0.0,cwc,2013-01-19 13:40:00,
2013-01-19 06:45:00,8.8,-27.2,30.63,NNE,25,0.0,-999.0,0,-99.99,,,0.00,0.0,cwc,2013-01-19 13:45:00,
2013-01-19 06:50:00,9.7,-26.3,30.64,NNE,25,0.0,-999.0,0,-99.99,,,0.00,0.0,cwc,2013-01-19 13:50:00,
2013-01-19 06:55:00,9.0,-27.0,30.64,NNE,25,0.0,-999.0,0,-99.99,,,0.00,0.0,cwc,2013-01-19 13:55:00,
2013-01-19 07:05:00,8.1,-27.9,30.60,NNE,25,4.0,-999.0,0,-99.99,,,0.00,0.0,cwc,2013-01-19 14:05:00,
2013-01-19 07:10:00,9.7,-26.3,30.60,NNE,27,2.0,-999.0,0,-99.99,,,0.00,0.0,cwc,2013-01-19 14:10:00,
2013-01-19 07:15:00,10.2,-25.8,30.60,North,354,4.0,-999.0,0,-99.99,,,0.00,0.0,cwc,2013-01-19 14:15:00,
2013-01-19 07:20:00,11.1,-24.9,30.66,NW,304,2.0,-999.0,0,-99.99,,,0.00,0.0,cwc,2013-01-19 14:20:00,
2013-01-19 07:25:00,11.4,-24.6,30.66,NW,304,2.0,-999.0,0,-99.99,,,0.00,0.0,cwc,2013-01-19 14:25:00,
2013-01-19 07:30:00,12.1,-23.9,30.66,NNE,27,8.0,-999.0,0,-99.99,,,0.00,0.0,cwc,2013-01-19 14:30:00,
2013-01-19 07:40:00,11.9,-24.1,30.65,ENE,62,0.0,-999.0,0,-99.99,,,0.00,0.0,cwc,2013-01-19 14:40:00,
2013-01-19 07:45:00,13.3,-22.7,30.65,ENE,62,0.0,-999.0,0,-99.99,,,0.00,0.0,cwc,2013-01-19 14:45:00,
2013-01-19 07:50:00,12.4,-23.6,30.66,ENE,61,0.0,-999.0,0,-99.99,,,0.00,0.0,cwc,2013-01-19 14:50:00,
2013-01-19 07:55:00,12.4,-23.6,30.66,NNE,25,0.0,-999.0,0,-99.99,,,0.00,0.0,cwc,2013-01-19 14:55:00,
2013-01-19 08:00:00,12.4,-23.6,30.66,NNE,31,2.0,-999.0,0,-99.99,,,0.00,0.0,cwc,2013-01-19 15:00:00,
2013-01-19 08:05:00,12.9,-23.1,30.65,NE,49,0.0,-999.0,0,-99.99,,,0.00,0.0,cwc,2013-01-19 15:05:00,
2013-01-19 08:10:00,14.1,-21.9,30.65,NE,49,0.0,-999.0,0,-99.99,,,0.00,0.0,cwc,2013-01-19 15:10:00,
2013-01-19 08:15:00,14.0,-22.0,30.65,NE,49,0.0,-999.0,0,-99.99,,,0.00,0.0,cwc,2013-01-19 15:15:00,
2013-01-19 08:20:00,14.3,-21.7,30.66,NE,49,0.0,-999.0,0,-99.99,,,0.00,0.0,cwc,2013-01-19 15:20:00,
2013-01-19 08:25:00,15.1,-20.5,30.66,NE,48,0.0,-999.0,1,-99.99,,,0.00,0.0,cwc,2013-01-19 15:25:00,
2013-01-19 08:30:00,16.2,-19.8,30.66,NE,54,0.0,-999.0,0,-99.99,,,0.00,0.0,cwc,2013-01-19 15:30:00,
2013-01-19 08:35:00,16.4,-17.4,30.60,NE,54,1.0,-999.0,6,-99.99,,,0.00,0.0,cwc,2013-01-19 15:35:00,
2013-01-19 08:40:00,16.5,-18.4,30.60,NE,54,0.0,-999.0,3,-99.99,,,0.00,0.0,cwc,2013-01-19 15:40:00,
2013-01-19 08:45:00,16.4,-19.6,30.60,NE,54,0.0,-999.0,0,-99.99,,,0.00,0.0,cwc,2013-01-19 15:45:00,
2013-01-19 08:50:00,17.8,-18.2,30.66,ENE,59,4.0,-999.0,0,-99.99,,,0.00,0.0,cwc,2013-01-19 15:50:00,
2013-01-19 08:55:00,21.3,-6.4,30.66,ENE,59,0.0,-999.0,23,-99.99,,,0.00,0.0,cwc,2013-01-19 15:55:00,
2013-01-19 09:00:00,18.8,-16.1,30.66,ENE,59,0.0,-999.0,3,-99.99,,,0.00,0.0,cwc,2013-01-19 16:00:00,
2013-01-19 09:05:00,18.9,-17.1,30.65,ENE,59,0.0,-999.0,0,-99.99,,,0.00,0.0,cwc,2013-01-19 16:05:00,
2013-01-19 09:10:00,21.0,-12.8,30.65,ENE,59,0.0,-999.0,6,-99.99,,,0.00,0.0,cwc,2013-01-19 16:10:00,
2013-01-19 09:15:00,21.8,-12.0,30.65,ENE,59,4.0,-999.0,6,-99.99,,,0.00,0.0,cwc,2013-01-19 16:15:00,
2013-01-19 09:20:00,22.5,-13.5,30.62,ENE,59,0.0,-999.0,0,-99.99,,,0.00,0.0,cwc,2013-01-19 16:20:00,
2013-01-19 09:25:00,21.8,-14.2,30.62,NE,56,0.0,-999.0,0,-99.99,,,0.00,0.0,cwc,2013-01-19 16:25:00,
2013-01-19 09:30:00,21.4,-14.6,30.62,NE,40,4.0,-999.0,0,-99.99,,,0.00,0.0,cwc,2013-01-19 16:30:00,
2013-01-19 09:35:00,21.6,-14.4,30.62,NE,48,11.0,-999.0,0,-99.99,,,0.00,0.0,cwc,2013-01-19 16:35:00,
2013-01-19 09:40:00,22.2,12.1,30.62,NNE,17,10.0,-999.0,72,-99.99,,,0.00,0.0,cwc,2013-01-19 16:40:00,
2013-01-19 09:45:00,22.9,11.4,30.62,NE,41,13.0,-999.0,68,-99.99,,,0.00,0.0,cwc,2013-01-19 16:45:00,
2013-01-19 09:50:00,23.9,11.3,30.60,NE,38,11.0,-999.0,65,-99.99,,,0.00,0.0,cwc,2013-01-19 16:50:00,
2013-01-19 09:55:00,24.5,11.9,30.60,NNE,27,8.0,-999.0,65,-99.99,,,0.00,0.0,cwc,2013-01-19 16:55:00,
2013-01-19 10:00:00,24.8,10.8,30.60,NNE,30,11.0,-999.0,61,-99.99,,,0.00,0.0,cwc,2013-01-19 17:00:00,
2013-01-19 10:05:00,25.0,11.0,30.58,NE,48,10.0,-999.0,61,-99.99,,,0.00,0.0,cwc,2013-01-19 17:05:00,
2013-01-19 10:10:00,25.4,10.6,30.58,NE,37,8.0,-999.0,59,-99.99,,,0.00,0.0,cwc,2013-01-19 17:10:00,
2013-01-19 10:15:00,26.3,11.5,30.58,NNE,23,11.0,-999.0,59,-99.99,,,0.00,0.0,cwc,2013-01-19 17:15:00,
2013-01-19 10:20:00,26.4,10.9,30.60,North,11,14.0,-999.0,57,-99.99,,,0.00,0.0,cwc,2013-01-19 17:20:00,
2013-01-19 10:25:00,26.7,11.9,30.60,NE,40,9.0,-999.0,59,-99.99,,,0.00,0.0,cwc,2013-01-19 17:25:00,
2013-01-19 10:30:00,26.9,12.1,30.60,NE,49,15.0,-999.0,59,-99.99,,,0.00,0.0,cwc,2013-01-19 17:30:00,
2013-01-19 10:35:00,27.3,9.7,30.56,NNE,27,11.0,-999.0,51,-99.99,,,0.00,0.0,cwc,2013-01-19 17:35:00,
2013-01-19 10:40:00,27.8,9.8,30.56,ENE,62,11.0,-999.0,50,-99.99,,,0.00,0.0,cwc,2013-01-19 17:40:00,
2013-01-19 10:45:00,28.2,9.8,30.56,NE,40,11.0,-999.0,49,-99.99,,,0.00,0.0,cwc,2013-01-19 17:45:00,
2013-01-19 10:50:00,29.1,10.7,30.58,NE,38,8.0,-999.0,49,-99.99,,,0.00,0.0,cwc,2013-01-19 17:50:00,
2013-01-19 10:55:00,29.5,10.8,30.58,ENE,68,7.0,-999.0,48,-99.99,,,0.00,0.0,cwc,2013-01-19 17:55:00,
2013-01-19 11:00:00,30.6,10.8,30.58,NE,54,8.0,-999.0,45,-99.99,,,0.00,0.0,cwc,2013-01-19 18:00:00,
2013-01-19 11:05:00,31.0,11.2,30.56,NNE,31,18.0,-999.0,45,-99.99,,,0.00,0.0,cwc,2013-01-19 18:05:00,
2013-01-19 11:10:00,31.3,11.5,30.56,NNE,23,13.0,-999.0,45,-99.99,,,0.00,0.0,cwc,2013-01-19 18:10:00,
2013-01-19 11:15:00,31.6,11.8,30.56,NE,42,8.0,-999.0,45,-99.99,,,0.00,0.0,cwc,2013-01-19 18:15:00,
2013-01-19 11:25:00,32.9,11.3,30.52,NE,51,7.0,-999.0,40,-99.99,,,0.00,0.0,cwc,2013-01-19 18:25:00,
2013-01-19 11:30:00,33.7,11.7,30.52,ENE,66,11.0,-999.0,39,-99.99,,,0.00,0.0,cwc,2013-01-19 18:30:00,
2013-01-19 11:35:00,34.3,12.3,30.50,ENE,69,9.0,-999.0,39,-99.99,,,0.00,0.0,cwc,2013-01-19 18:35:00,
2013-01-19 11:40:00,34.4,11.7,30.50,NNE,31,9.0,-999.0,37,-99.99,,,0.00,0.0,cwc,2013-01-19 18:40:00,
2013-01-19 11:45:00,35.0,13.0,30.50,NE,49,7.0,-999.0,39,-99.99,,,0.00,0.0,cwc,2013-01-19 18:45:00,
2013-01-19 11:50:00,35.6,12.9,30.49,NE,49,8.0,-999.0,37,-99.99,,,0.00,0.0,cwc,2013-01-19 18:50:00,
2013-01-19 11:55:00,36.3,12.9,30.49,NNE,25,8.0,-999.0,35,-99.99,,,0.00,0.0,cwc,2013-01-19 18:55:00,
2013-01-19 12:05:00,37.5,13.7,30.46,NNE,31,8.0,-999.0,34,-99.99,,,0.00,0.0,cwc,2013-01-19 19:05:00,
2013-01-19 12:15:00,38.3,13.1,30.46,North,0,1.0,-999.0,30,-99.99,,,0.00,0.0,cwc,2013-01-19 19:15:00,
2013-01-19 12:25:00,39.5,13.9,30.46,NE,47,11.0,-999.0,29,-99.99,,,0.00,0.0,cwc,2013-01-19 19:25:00,
2013-01-19 12:30:00,39.6,14.0,30.46,NE,41,8.0,-999.0,29,-99.99,,,0.00,0.0,cwc,2013-01-19 19:30:00,
2013-01-19 12:35:00,40.1,14.2,30.45,North,7,7.0,-999.0,28,-99.99,,,0.00,0.0,cwc,2013-01-19 19:35:00,
2013-01-19 12:45:00,41.3,15.4,30.45,North,11,4.0,-999.0,28,-99.99,,,0.00,0.0,cwc,2013-01-19 19:45:00,
2013-01-19 12:50:00,41.1,14.8,30.43,NE,47,4.0,-999.0,27,-99.99,,,0.00,0.0,cwc,2013-01-19 19:50:00,
2013-01-19 13:00:00,41.8,15.2,30.43,NNE,24,9.0,-999.0,26,-99.99,,,0.00,0.0,cwc,2013-01-19 20:00:00,
2013-01-19 13:10:00,42.3,15.7,30.42,NE,56,4.0,-999.0,26,-99.99,,,0.00,0.0,cwc,2013-01-19 20:10:00,
2013-01-19 13:15:00,42.5,15.1,30.42,North,354,9.0,-999.0,24,-99.99,,,0.00,0.0,cwc,2013-01-19 20:15:00,
2013-01-19 13:20:00,42.6,15.6,30.41,NE,34,6.0,-999.0,25,-99.99,,,0.00,0.0,cwc,2013-01-19 20:20:00,
2013-01-19 13:25:00,42.8,16.2,30.41,NNE,17,2.0,-999.0,26,-99.99,,,0.00,0.0,cwc,2013-01-19 20:25:00,
2013-01-19 13:30:00,43.3,16.3,30.41,NE,48,6.0,-999.0,25,-99.99,,,0.00,0.0,cwc,2013-01-19 20:30:00,
2013-01-19 13:35:00,43.5,16.1,30.41,North,10,10.0,-999.0,24,-99.99,,,0.00,0.0,cwc,2013-01-19 20:35:00,
2013-01-19 13:40:00,43.5,16.5,30.41,NE,47,1.0,-999.0,25,-99.99,,,0.00,0.0,cwc,2013-01-19 20:40:00,
2013-01-19 13:45:00,43.6,15.9,30.41,NE,34,0.0,-999.0,23,-99.99,,,0.00,0.0,cwc,2013-01-19 20:45:00,
2013-01-19 13:50:00,43.6,15.5,30.40,NNE,24,6.0,-999.0,22,-99.99,,,0.00,0.0,cwc,2013-01-19 20:50:00,
2013-01-19 13:55:00,43.8,16.1,30.40,NNE,17,14.0,-999.0,23,-99.99,,,0.00,0.0,cwc,2013-01-19 20:55:00,
2013-01-19 14:00:00,43.9,16.5,30.40,NE,34,11.0,-999.0,24,-99.99,,,0.00,0.0,cwc,2013-01-19 21:00:00,
2013-01-19 14:05:00,44.5,17.1,30.39,NE,52,7.0,-999.0,24,-99.99,,,0.00,0.0,cwc,2013-01-19 21:05:00,
2013-01-19 14:15:00,45.1,17.4,30.39,NNE,20,4.0,-999.0,23,-99.99,,,0.00,0.0,cwc,2013-01-19 21:15:00,
2013-01-19 14:20:00,45.1,17.0,30.41,NE,51,7.0,-999.0,22,-99.99,,,0.00,0.0,cwc,2013-01-19 21:20:00,
2013-01-19 14:25:00,45.4,17.7,30.41,North,4,6.0,-999.0,23,-99.99,,,0.00,0.0,cwc,2013-01-19 21:25:00,
2013-01-19 14:30:00,45.7,17.3,30.41,North,0,7.0,-999.0,21,-99.99,,,0.00,0.0,cwc,2013-01-19 21:30:00,
2013-01-19 14:35:00,45.7,17.6,30.39,NE,56,8.0,-999.0,22,-99.99,,,0.00,0.0,cwc,2013-01-19 21:35:00,
2013-01-19 14:40:00,46.0,17.6,30.39,NNE,32,7.0,-999.0,21,-99.99,,,0.00,0.0,cwc,2013-01-19 21:40:00,
2013-01-19 14:45:00,46.4,18.0,30.39,NE,34,0.0,-999.0,21,-99.99,,,0.00,0.0,cwc,2013-01-19 21:45:00,
2013-01-19 14:55:00,46.8,18.4,30.39,NNE,13,7.0,-999.0,21,-99.99,,,0.00,0.0,cwc,2013-01-19 21:55:00,
2013-01-19 15:00:00,46.5,17.7,30.39,NE,34,2.0,-999.0,20,-99.99,,,0.00,0.0,cwc,2013-01-19 22:00:00,
2013-01-19 15:15:00,48.0,18.8,30.39,North,0,0.0,-999.0,19,-99.99,,,0.00,0.0,cwc,2013-01-19 22:15:00,
2013-01-19 15:20:00,48.3,19.9,30.38,North,0,0.0,-999.0,21,-99.99,,,0.00,0.0,cwc,2013-01-19 22:20:00,
2013-01-19 15:25:00,48.2,19.0,30.38,North,6,0.0,-999.0,19,-99.99,,,0.00,0.0,cwc,2013-01-19 22:25:00,
2013-01-19 15:30:00,48.0,18.8,30.38,North,359,7.0,-999.0,19,-99.99,,,0.00,0.0,cwc,2013-01-19 22:30:00,
2013-01-19 15:35:00,48.3,19.1,30.38,North,359,0.0,-999.0,19,-99.99,,,0.00,0.0,cwc,2013-01-19 22:35:00,
2013-01-19 15:40:00,48.3,19.5,30.38,NNE,14,0.0,-999.0,20,-99.99,,,0.00,0.0,cwc,2013-01-19 22:40:00,
2013-01-19 15:45:00,49.1,19.9,30.38,North,11,0.0,-999.0,19,-99.99,,,0.00,0.0,cwc,2013-01-19 22:45:00,
2013-01-19 15:50:00,49.2,19.7,30.37,North,11,0.0,-999.0,18,-99.99,,,0.00,0.0,cwc,2013-01-19 22:50:00,
2013-01-19 15:55:00,50.5,21.0,30.37,North,11,0.0,-999.0,18,-99.99,,,0.00,0.0,cwc,2013-01-19 22:55:00,
2013-01-19 16:05:00,49.5,19.6,30.36,North,352,0.0,-999.0,17,-99.99,,,0.00,0.0,cwc,2013-01-19 23:05:00,
2013-01-19 16:10:00,48.5,18.6,30.36,NE,47,6.0,-999.0,17,-99.99,,,0.00,0.0,cwc,2013-01-19 23:10:00,
2013-01-19 16:15:00,48.5,19.0,30.36,NNW,340,0.0,-999.0,18,-99.99,,,0.00,0.0,cwc,2013-01-19 23:15:00,
2013-01-19 16:20:00,47.9,18.4,30.40,North,359,4.0,-999.0,18,-99.99,,,0.00,0.0,cwc,2013-01-19 23:20:00,
2013-01-19 16:25:00,47.7,18.2,30.40,North,357,0.0,-999.0,18,-99.99,,,0.00,0.0,cwc,2013-01-19 23:25:00,
2013-01-19 16:30:00,48.0,18.5,30.40,North,357,0.0,-999.0,18,-99.99,,,0.00,0.0,cwc,2013-01-19 23:30:00,
2013-01-19 16:35:00,47.4,18.6,30.40,North,1,7.0,-999.0,20,-99.99,,,0.00,0.0,cwc,2013-01-19 23:35:00,
2013-01-19 16:40:00,46.7,17.9,30.40,North,4,0.0,-999.0,20,-99.99,,,0.00,0.0,cwc,2013-01-19 23:40:00,
2013-01-19 16:45:00,46.2,17.4,30.40,North,6,0.0,-999.0,20,-99.99,,,0.00,0.0,cwc,2013-01-19 23:45:00,
2013-01-19 16:55:00,48.2,20.1,30.42,North,6,0.0,-999.0,22,-99.99,,,0.00,0.0,cwc,2013-01-19 23:55:00,
2013-01-19 17:05:00,45.7,18.3,30.42,North,6,0.0,-999.0,24,-99.99,,,0.00,0.0,cwc,2013-01-20 00:05:00,
2013-01-19 17:10:00,44.9,19.0,30.42,North,6,2.0,-999.0,28,-99.99,,,0.00,0.0,cwc,2013-01-20 00:10:00,
2013-01-19 17:15:00,43.8,17.2,30.42,North,6,0.0,-999.0,26,-99.99,,,0.00,0.0,cwc,2013-01-20 00:15:00,
2013-01-19 17:20:00,42.5,17.3,30.44,North,1,0.0,-999.0,30,-99.99,,,0.00,0.0,cwc,2013-01-20 00:20:00,
2013-01-19 17:25:00,42.1,24.1,30.44,North,1,0.0,-999.0,50,-99.99,,,0.00,0.0,cwc,2013-01-20 00:25:00,
2013-01-19 17:35:00,41.2,15.6,30.47,North,354,0.0,-999.0,29,-99.99,,,0.00,0.0,cwc,2013-01-20 00:35:00,
2013-01-19 17:40:00,40.5,14.6,30.47,North,354,0.0,-999.0,28,-99.99,,,0.00,0.0,cwc,2013-01-20 00:40:00,
2013-01-19 17:45:00,40.2,14.3,30.47,North,354,0.0,-999.0,28,-99.99,,,0.00,0.0,cwc,2013-01-20 00:45:00,
2013-01-19 17:50:00,39.9,14.0,30.48,NNE,14,2.0,-999.0,28,-99.99,,,0.00,0.0,cwc,2013-01-20 00:50:00,
2013-01-19 17:55:00,39.9,14.3,30.48,NNE,14,1.0,-999.0,29,-99.99,,,0.00,0.0,cwc,2013-01-20 00:55:00,
2013-01-19 18:00:00,39.6,14.0,30.48,NNE,14,1.0,-999.0,29,-99.99,,,0.00,0.0,cwc,2013-01-20 01:00:00,
2013-01-19 18:05:00,39.1,13.9,30.48,NNE,14,1.0,-999.0,30,-99.99,,,0.00,0.0,cwc,2013-01-20 01:05:00,
2013-01-19 18:10:00,37.8,13.0,30.48,NNE,14,2.0,-999.0,31,-99.99,,,0.00,0.0,cwc,2013-01-20 01:10:00,
2013-01-19 18:15:00,36.6,12.5,30.48,NNE,21,1.0,-999.0,33,-99.99,,,0.00,0.0,cwc,2013-01-20 01:15:00,
2013-01-19 18:20:00,35.8,12.4,30.53,NNE,21,0.0,-999.0,35,-99.99,,,0.00,0.0,cwc,2013-01-20 01:20:00,
2013-01-19 18:25:00,35.5,12.5,30.53,NNE,21,0.0,-999.0,36,-99.99,,,0.00,0.0,cwc,2013-01-20 01:25:00,
2013-01-19 18:30:00,34.6,13.7,30.53,NNE,21,0.0,-999.0,42,-99.99,,,0.00,0.0,cwc,2013-01-20 01:30:00,
2013-01-19 18:35:00,34.0,12.0,30.55,NNE,21,0.0,-999.0,39,-99.99,,,0.00,0.0,cwc,2013-01-20 01:35:00,
2013-01-19 18:40:00,33.5,20.9,30.55,NNE,21,0.0,-999.0,65,-99.99,,,0.00,0.0,cwc,2013-01-20 01:40:00,
2013-01-19 18:45:00,31.3,11.5,30.55,NNE,21,2.0,-999.0,45,-99.99,,,0.00,0.0,cwc,2013-01-20 01:45:00,
2013-01-19 18:50:00,32.5,13.8,30.58,NNE,21,0.0,-999.0,48,-99.99,,,0.00,0.0,cwc,2013-01-20 01:50:00,
2013-01-19 19:05:00,29.7,13.1,30.59,NNE,23,0.0,-999.0,54,-99.99,,,0.00,0.0,cwc,2013-01-20 02:05:00,
2013-01-19 19:10:00,28.5,10.1,30.59,NNE,23,0.0,-999.0,49,-99.99,,,0.00,0.0,cwc,2013-01-20 02:10:00,
2013-01-19 19:15:00,28.1,10.1,30.59,NNE,23,0.0,-999.0,50,-99.99,,,0.00,0.0,cwc,2013-01-20 02:15:00,
2013-01-19 19:20:00,27.5,10.2,30.58,NNE,23,0.0,-999.0,52,-99.99,,,0.00,0.0,cwc,2013-01-20 02:20:00,
2013-01-19 19:30:00,26.9,12.1,30.58,NNE,23,2.0,-999.0,59,-99.99,,,0.00,0.0,cwc,2013-01-20 02:30:00,
2013-01-19 19:35:00,27.6,12.1,30.58,NNE,23,0.0,-999.0,57,-99.99,,,0.00,0.0,cwc,2013-01-20 02:35:00,
2013-01-19 19:45:00,26.1,11.0,30.58,NNE,23,0.0,-999.0,58,-99.99,,,0.00,0.0,cwc,2013-01-20 02:45:00,
2013-01-19 19:50:00,30.0,14.5,30.60,NNE,23,0.0,-999.0,57,-99.99,,,0.00,0.0,cwc,2013-01-20 02:50:00,
2013-01-19 19:55:00,25.3,10.9,30.60,NNE,23,0.0,-999.0,60,-99.99,,,0.00,0.0,cwc,2013-01-20 02:55:00,
2013-01-19 20:00:00,25.3,10.9,30.60,NNE,23,0.0,-999.0,60,-99.99,,,0.00,0.0,cwc,2013-01-20 03:00:00,
2013-01-19 20:05:00,25.1,10.3,30.61,NNE,23,0.0,-999.0,59,-99.99,,,0.00,0.0,cwc,2013-01-20 03:05:00,
2013-01-19 20:10:00,27.2,12.4,30.61,NNE,23,0.0,-999.0,59,-99.99,,,0.00,0.0,cwc,2013-01-20 03:10:00,
2013-01-19 20:15:00,26.9,-6.2,30.61,NNE,23,0.0,-999.0,8,-99.99,,,0.00,0.0,cwc,2013-01-20 03:15:00,
2013-01-19 20:20:00,24.2,13.4,30.57,NNE,23,0.0,-999.0,70,-99.99,,,0.00,0.0,cwc,2013-01-20 03:20:00,
2013-01-19 20:25:00,34.6,24.2,30.57,NNE,23,0.0,-999.0,71,-99.99,,,0.00,0.0,cwc,2013-01-20 03:25:00,
2013-01-19 20:30:00,24.8,-11.2,30.57,NNE,23,0.0,-999.0,0,-99.99,,,0.00,0.0,cwc,2013-01-20 03:30:00,
2013-01-19 20:35:00,25.6,-10.4,30.59,NNE,23,0.0,-999.0,0,-99.99,,,0.00,0.0,cwc,2013-01-20 03:35:00,
2013-01-19 20:40:00,23.0,-13.0,30.59,NNE,23,0.0,-999.0,0,-99.99,,,0.00,0.0,cwc,2013-01-20 03:40:00,
2013-01-19 20:50:00,22.9,-13.1,30.60,NNE,23,0.0,-999.0,0,-99.99,,,0.00,0.0,cwc,2013-01-20 03:50:00,
2013-01-19 21:00:00,22.5,-13.5,30.60,NNE,23,0.0,-999.0,0,-99.99,,,0.00,0.0,cwc,2013-01-20 04:00:00,
2013-01-19 21:05:00,22.2,-13.8,30.62,NNE,23,0.0,-999.0,0,-99.99,,,0.00,0.0,cwc,2013-01-20 04:05:00,
2013-01-19 21:15:00,21.4,-14.6,30.62,NNE,23,0.0,-999.0,0,-99.99,,,0.00,0.0,cwc,2013-01-20 04:15:00,
2013-01-19 21:20:00,23.2,12.0,30.52,NNE,23,0.0,-999.0,69,-99.99,,,0.00,0.0,cwc,2013-01-20 04:20:00,
2013-01-19 21:25:00,21.0,9.1,30.52,NNE,23,2.0,-999.0,67,-99.99,,,0.00,0.0,cwc,2013-01-20 04:25:00,
2013-01-19 21:30:00,21.1,12.5,30.52,NNE,23,4.0,-999.0,76,-99.99,,,0.00,0.0,cwc,2013-01-20 04:30:00,
2013-01-19 21:35:00,19.7,9.6,30.56,NNE,23,0.0,-999.0,72,-99.99,,,0.00,0.0,cwc,2013-01-20 04:35:00,
2013-01-19 21:40:00,19.2,8.8,30.56,NNE,23,0.0,-999.0,71,-99.99,,,0.00,0.0,cwc,2013-01-20 04:40:00,
2013-01-19 21:45:00,20.2,9.8,30.56,NNE,23,0.0,-999.0,71,-99.99,,,0.00,0.0,cwc,2013-01-20 04:45:00,
2013-01-19 22:05:00,18.4,9.0,30.61,NNE,23,2.0,-999.0,74,-99.99,,,0.00,0.0,cwc,2013-01-20 05:05:00,
2013-01-19 22:10:00,20.6,11.2,30.61,NNE,23,0.0,-999.0,74,-99.99,,,0.00,0.0,cwc,2013-01-20 05:10:00,
2013-01-19 22:15:00,19.9,11.3,30.61,NNE,23,0.0,-999.0,76,-99.99,,,0.00,0.0,cwc,2013-01-20 05:15:00,
2013-01-19 22:20:00,19.1,11.9,30.53,NNE,23,0.0,-999.0,80,-99.99,,,0.00,0.0,cwc,2013-01-20 05:20:00,
2013-01-19 22:25:00,20.2,12.6,30.53,NNE,23,2.0,-999.0,79,-99.99,,,0.00,0.0,cwc,2013-01-20 05:25:00,
2013-01-19 22:30:00,19.2,12.4,30.53,NNE,23,0.0,-999.0,81,-99.99,,,0.00,0.0,cwc,2013-01-20 05:30:00,
2013-01-19 22:35:00,18.6,10.7,30.55,NNE,23,0.0,-999.0,78,-99.99,,,0.00,0.0,cwc,2013-01-20 05:35:00,
2013-01-19 22:40:00,18.8,10.2,30.55,NNE,23,0.0,-999.0,76,-99.99,,,0.00,0.0,cwc,2013-01-20 05:40:00,
2013-01-19 22:45:00,22.2,-5.9,30.55,NNE,23,0.0,-999.0,22,-99.99,,,0.00,0.0,cwc,2013-01-20 05:45:00,
2013-01-19 22:50:00,22.2,2.8,30.54,NNE,23,0.0,-999.0,46,-99.99,,,0.00,0.0,cwc,2013-01-20 05:50:00,
2013-01-19 22:55:00,30.0,-4.2,30.54,NNE,23,0.0,-999.0,5,-99.99,,,0.00,0.0,cwc,2013-01-20 05:55:00,
2013-01-19 23:00:00,25.1,-7.3,30.54,NNE,23,0.0,-999.0,10,-99.99,,,0.00,0.0,cwc,2013-01-20 06:00:00,
2013-01-19 23:05:00,23.6,-3.4,30.52,NNE,23,0.0,-999.0,25,-99.99,,,0.00,0.0,cwc,2013-01-20 06:05:00,
2013-01-19 23:10:00,20.8,-2.6,30.52,NNE,23,0.0,-999.0,35,-99.99,,,0.00,0.0,cwc,2013-01-20 06:10:00,
2013-01-19 23:15:00,18.4,3.6,30.52,NNE,23,0.0,-999.0,59,-99.99,,,0.00,0.0,cwc,2013-01-20 06:15:00,
2013-01-19 23:20:00,17.8,4.1,30.53,NNE,23,0.0,-999.0,62,-99.99,,,0.00,0.0,cwc,2013-01-20 06:20:00,
2013-01-19 23:25:00,17.3,4.7,30.53,NNE,23,0.0,-999.0,65,-99.99,,,0.00,0.0,cwc,2013-01-20 06:25:00,
2013-01-19 23:30:00,16.7,4.8,30.53,NNE,23,0.0,-999.0,67,-99.99,,,0.00,0.0,cwc,2013-01-20 06:30:00,
2013-01-19 23:35:00,16.2,4.3,30.52,NNE,23,0.0,-999.0,67,-99.99,,,0.00,0.0,cwc,2013-01-20 06:35:00,
2013-01-19 23:40:00,17.0,5.1,30.52,NNE,23,0.0,-999.0,67,-99.99,,,0.00,0.0,cwc,2013-01-20 06:40:00,
2013-01-19 23:45:00,17.8,5.9,30.52,NNE,23,0.0,-999.0,67,-99.99,,,0.00,0.0,cwc,2013-01-20 06:45:00,
2013-01-19 23:50:00,19.7,17.5,30.48,NNE,23,0.0,-999.0,94,-99.99,,,0.00,0.0,cwc,2013-01-20 06:50:00,
2013-01-19 23:55:00,17.0,17.0,30.48,NNE,23,0.0,-999.0,100,-99.99,,,0.00,0.0,cwc,2013-01-20 06:55:00,